Tracking 27097 objects as of 29-Mar-2023
HD Live streaming from Space Station
objects crossing your sky now

RESURS O1 DEB

Track RESURS O1 DEB now!
10-day predictions


NORAD ID: 46882
Int'l Code: 1994-074BN
Perigee: 468.5 km
Apogee: 490.0 km
Inclination: 97.9 °
Period: 94.0 minutes
Semi major axis: 6850 km
RCS: Unknown
Launch date: November 4, 1994
Source: Commonwealth of Independent States (former USSR) (CIS)
Launch site: TYURATAM MISSILE AND SPACE COMPLEX (TTMTR)

Note: This is SATELLITE DEBRIS
Your satellite tracking list
Your tracking list is empty




NASA's NSSDC Master Catalog

Two Line Element Set (TLE):
1 46882U 94074BN  23088.14087256  .00562875  00000-0  17288-1 0  9996
2 46882  97.8843 146.1053 0015658 254.5264 105.4247 15.31236303130040
Source of the keplerian elements: AFSPC